FW9490 Weather Reports


time (UTC)temp
F
wind
direction
speed
knots
gust
knots
rain 1hr
in
rain 24hr
in
rain mn
in
humidity
%
barometer
mb
20260505181050 0 312 0.0 0.9 0.00 0.00 0.00 1012.2
20260505180545 0 300 0.0 0.0 0.00 0.00 0.00 1012.2
20260505180044 0 324 0.9 1.7 0.00 0.00 0.00 1012.4
20260505175543 0 276 0.0 0.0 0.00 0.00 0.00 1012.3
20260505175040 0 184 0.9 0.9 0.00 0.00 0.00 1012.4
20260505174537 0 51 1.7 2.6 0.00 0.00 0.00 1012.8
20260505174033 0 272 1.7 1.7 0.00 0.00 0.00 1012.8
20260505173530 0 257 0.0 0.9 0.00 0.00 0.00 1012.6
20260505173027 0 57 0.0 0.9 0.00 0.00 0.00 1013.0
20260505172525 0 71 2.6 4.3 0.00 0.00 0.00 1012.8
20260505172020 0 245 0.9 0.9 0.00 0.00 0.00 1012.8
20260505171516 0 6 0.9 1.7 0.00 0.00 0.00 1013.0
20260505171013 0 3 0.0 0.0 0.00 0.00 0.00 1013.1
20260505170510 0 304 0.0 0.9 0.00 0.00 0.00 1013.2
20260505170006 0 348 2.6 2.6 0.00 0.00 0.00 1013.2
20260505165501 0 9 0.0 0.0 0.00 0.00 0.00 1013.3
20260505164957 0 149 2.6 2.6 0.00 0.00 0.00 1013.4
20260505164454 0 277 0.9 0.9 0.00 0.00 0.00 1013.4
20260505163952 0 296 0.9 0.9 0.00 0.00 0.00 1013.2
20260505163450 0 244 1.7 1.7 0.00 0.00 0.00 1013.3
20260505162950 0 286 1.7 1.7 0.00 0.00 0.00 1013.5
20260505162445 0 308 0.0 0.0 0.00 0.00 0.00 1013.4
20260505161941 0 343 0.0 0.0 0.00 0.00 0.00 1013.4
20260505161438 0 341 0.9 0.9 0.00 0.00 0.00 1013.3
20260505160930 0 349 0.0 0.0 0.00 0.00 0.00 1013.4
20260505160428 0 305 0.0 0.9 0.00 0.00 0.00 1013.4
20260505152904 0 328 0.9 0.9 0.00 0.00 0.00 1013.6
20260505152401 0 359 0.0 0.9 0.00 0.00 0.00 1013.4
20260505151901 0 345 0.0 0.0 0.00 0.00 0.00 1013.3
20260505151358 0 339 0.9 1.7 0.00 0.00 0.00 1013.2
20260505150855 0 337 0.0 0.0 0.00 0.00 0.00 1013.4
20260505150352 0 265 0.0 0.0 0.00 0.00 0.00 1013.4
20260505140316 0 303 0.0 0.9 0.00 0.00 0.00 1013.5
20260505130240 0 307 0.0 0.0 0.00 0.00 0.00 1013.4
20260505124731 0 283 0.9 0.9 0.00 0.00 0.00 1013.3
20260505124227 0 294 0.0 0.0 0.00 0.00 0.00 1013.0
20260505123723 0 289 0.0 0.0 0.00 0.00 0.00 1013.3
20260505123220 0 289 0.0 0.0 0.00 0.00 0.00 1013.0
20260505122716 0 299 0.0 0.0 0.00 0.00 0.00 1012.9
20260505122214 0 296 0.0 0.0 0.00 0.00 0.00 1012.8
20260505121710 0 293 0.0 0.0 0.00 0.00 0.00 1013.0
20260505121207 0 294 0.0 0.0 0.00 0.00 0.00 1012.6
20260505120703 0 301 0.0 0.0 0.00 0.00 0.00 1012.9
20260505120159 0 301 0.0 0.0 0.00 0.00 0.00 1013.0
20260505115652 0 301 0.0 0.0 0.00 0.00 0.00 1012.9
20260505115151 0 301 0.0 0.0 0.00 0.00 0.00 1012.5
20260505114648 0 300 0.0 0.0 0.00 0.00 0.00 1012.6
20260505114144 0 300 0.0 0.0 0.00 0.00 0.00 1012.6
20260505113640 0 301 0.0 0.0 0.00 0.00 0.00 1012.6
20260505113137 0 302 0.0 0.0 0.00 0.00 0.00 1012.5
20260505112633 0 304 0.0 0.0 0.00 0.00 0.00 1012.5
20260505112132 0 299 0.0 0.0 0.00 0.00 0.00 1012.4
20260505111631 0 298 0.0 0.0 0.00 0.00 0.00 1012.3
20260505111127 0 301 0.0 0.0 0.00 0.00 0.00 1012.2
20260505110623 0 300 0.0 0.0 0.00 0.00 0.00 1012.2
20260505110121 0 301 0.0 0.0 0.00 0.00 0.00 1012.1
20260505102056 0 301 0.0 0.0 0.00 0.00 0.00 1012.1
20260505101555 0 296 0.0 0.0 0.00 0.00 0.00 1012.2
20260505101051 0 303 0.0 0.0 0.00 0.00 0.00 1011.9
20260505100547 0 306 0.0 0.0 0.00 0.00 0.00 1012.1
20260505100044 0 305 0.0 0.0 0.00 0.00 0.00 1012.2
20260505095540 0 306 0.0 0.0 0.00 0.00 0.00 1012.4
20260505095037 0 305 0.0 0.0 0.00 0.00 0.00 1012.0
20260505094534 0 305 0.0 0.0 0.00 0.00 0.00 1012.1
20260505094030 0 300 0.0 0.0 0.00 0.00 0.00 1012.2
20260505093526 0 300 0.0 0.0 0.00 0.00 0.00 1012.3
20260505093024 0 292 0.0 0.0 0.00 0.00 0.00 1012.1
20260505092521 0 303 0.0 0.0 0.00 0.00 0.00 1012.3
20260505092019 0 307 0.0 0.0 0.00 0.00 0.00 1012.3
20260505091516 0 296 0.0 0.0 0.00 0.00 0.00 1012.3
20260505091014 0 299 0.0 0.0 0.00 0.00 0.00 1012.3
20260505090512 0 287 0.0 0.0 0.00 0.00 0.00 1012.2
20260505090009 0 296 0.0 0.0 0.00 0.00 0.00 1012.3
20260505085507 0 305 0.0 0.0 0.00 0.00 0.00 1012.1
20260505085005 0 316 0.0 0.0 0.00 0.00 0.00 1012.1
20260505084503 0 296 0.0 0.0 0.00 0.00 0.00 1011.9
20260505084001 0 302 0.0 0.0 0.00 0.00 0.00 1012.0
20260505083458 0 297 0.0 0.0 0.00 0.00 0.00 1011.7
20260505082954 0 302 0.0 0.0 0.00 0.00 0.00 1011.6
20260505082450 0 300 0.0 0.0 0.00 0.00 0.00 1011.4
20260505081947 0 301 0.0 0.0 0.00 0.00 0.00 1011.8
20260505081444 0 294 0.0 0.0 0.00 0.00 0.00 1011.5
20260505080940 0 302 0.0 0.0 0.00 0.00 0.00 1011.6
20260505080436 0 309 0.0 0.0 0.00 0.00 0.00 1011.2
20260505075932 0 299 0.0 0.0 0.00 0.00 0.00 1011.4
20260505075429 0 294 0.0 0.0 0.00 0.00 0.00 1011.2
20260505074926 0 302 0.0 0.0 0.00 0.00 0.00 1011.4
20260505074424 0 285 0.0 0.0 0.00 0.00 0.00 1011.3
20260505073921 0 295 0.0 0.0 0.00 0.00 0.00 1011.4
20260505073418 0 290 0.0 0.0 0.00 0.00 0.00 1011.5
20260505072915 0 292 0.0 0.0 0.00 0.00 0.00 1011.5
20260505072411 0 303 0.0 0.0 0.00 0.00 0.00 1011.4
20260505071908 0 299 0.0 0.0 0.00 0.00 0.00 1011.6
20260505071404 0 309 0.0 0.0 0.00 0.00 0.00 1011.6
20260505070902 0 301 0.0 0.0 0.00 0.00 0.00 1011.5
20260505070358 0 295 0.0 0.0 0.00 0.00 0.00 1011.6
20260505065854 0 324 0.9 0.9 0.00 0.00 0.00 1011.5
20260505065351 0 283 0.0 0.0 0.00 0.00 0.00 1011.7
20260505064848 0 286 0.0 0.0 0.00 0.00 0.00 1011.7
20260505064345 0 302 0.0 0.0 0.00 0.00 0.00 1011.7
20260505063843 0 299 0.0 0.0 0.00 0.00 0.00 1011.6
20260505063338 0 287 0.0 0.0 0.00 0.00 0.00 1011.5
20260505062835 0 261 0.0 0.0 0.00 0.00 0.00 1011.5
20260505062333 0 295 0.0 0.0 0.00 0.00 0.00 1011.3
20260505061829 0 277 0.0 0.0 0.00 0.00 0.00 1011.5
20260505061328 0 258 0.0 0.0 0.00 0.00 0.00 1011.5
20260505060825 0 292 0.0 0.0 0.00 0.00 0.00 1011.5
20260505060322 0 283 0.0 0.0 0.00 0.00 0.00 1011.5
20260505055817 0 299 0.0 0.0 0.00 0.00 0.00 1011.6
20260505055313 0 293 0.0 0.0 0.00 0.00 0.00 1011.4
20260505054811 0 312 0.0 0.0 0.00 0.00 0.00 1011.3
20260505054308 0 318 0.0 0.0 0.00 0.00 0.00 1011.4
20260505053807 0 279 0.0 0.0 0.00 0.00 0.00 1011.6
20260505053303 0 280 0.0 0.0 0.00 0.00 0.00 1011.3
20260505052800 0 327 0.0 0.0 0.00 0.00 0.00 1011.4
20260505052257 0 310 0.0 0.0 0.00 0.00 0.00 1011.4
20260505051754 0 282 0.0 0.0 0.00 0.00 0.00 1011.5
20260505051252 0 300 0.0 0.0 0.00 0.00 0.00 1011.4
20260505050749 0 272 0.0 0.0 0.00 0.00 0.00 1011.3
20260505050248 0 299 0.0 0.0 0.00 0.00 0.00 1011.4
20260505041717 0 319 0.0 0.0 0.00 0.00 0.00 1010.9
20260505041215 0 300 0.0 0.0 0.00 0.00 0.00 1011.1
20260505040712 0 297 0.0 0.0 0.00 0.00 0.00 1011.3
20260505040209 0 296 0.0 0.0 0.00 0.00 0.00 1011.5
20260505035706 0 294 0.0 0.0 0.00 0.00 0.00 1011.3
20260505035202 0 299 0.0 0.0 0.00 0.00 0.00 1011.2
20260505034658 0 297 0.0 0.0 0.00 0.00 0.00 1011.3
20260505034156 0 306 0.0 0.0 0.00 0.00 0.00 1011.2
20260505033652 0 303 0.0 0.0 0.00 0.00 0.00 1011.3
20260505033150 0 287 0.0 0.0 0.00 0.00 0.00 1011.3
20260505032648 0 256 0.0 0.0 0.00 0.00 0.00 1011.2
20260505032144 0 314 0.0 0.0 0.00 0.00 0.00 1011.3
20260505031642 0 288 0.0 0.0 0.00 0.00 0.00 1011.3
20260505031138 0 305 0.0 0.0 0.00 0.00 0.00 1011.5
20260505030635 0 334 0.0 0.0 0.00 0.00 0.00 1011.5
20260505030130 0 294 0.0 0.0 0.00 0.00 0.00 1011.3
20260505025627 0 297 0.0 0.0 0.00 0.00 0.00 1011.5
20260505025126 0 291 0.0 0.0 0.00 0.00 0.00 1011.5
20260505024623 0 307 0.0 0.0 0.00 0.00 0.00 1011.4
20260505024120 0 333 0.0 0.0 0.00 0.00 0.00 1011.4
20260505023617 0 359 0.9 0.9 0.00 0.00 0.00 1011.4
20260505023115 0 321 0.0 0.0 0.00 0.00 0.00 1011.5
20260505022612 0 310 0.0 0.0 0.00 0.00 0.00 1011.5
20260505022108 0 332 0.0 0.0 0.00 0.00 0.00 1011.5
20260505021605 0 332 0.0 0.0 0.00 0.00 0.00 1011.5
20260505021102 0 7 0.0 0.0 0.00 0.00 0.00 1011.4
20260505020602 0 301 0.0 0.0 0.00 0.00 0.00 1011.5
20260505020059 0 310 0.0 0.9 0.00 0.00 0.00 1011.3
20260505015556 0 299 0.0 0.9 0.00 0.00 0.00 1011.3
20260505015053 0 291 0.0 0.0 0.00 0.00 0.00 1011.4
20260505014549 0 292 0.0 0.0 0.00 0.00 0.00 1011.6
20260505014046 0 298 0.0 0.0 0.00 0.00 0.00 1011.3
20260505013543 0 276 0.0 0.0 0.00 0.00 0.00 1011.4
20260505013041 0 276 0.0 0.0 0.00 0.00 0.00 1011.3
20260505012539 0 304 0.0 0.0 0.00 0.00 0.00 1011.4
20260505012036 0 343 0.0 0.9 0.00 0.00 0.00 1011.0
20260505011531 0 263 0.0 0.0 0.00 0.00 0.00 1011.1
20260505011029 0 42 0.0 0.9 0.00 0.00 0.00 1010.9
20260505010524 0 226 0.0 0.0 0.00 0.00 0.00 1011.0
20260505010021 0 260 0.0 0.0 0.00 0.00 0.00 1011.0
20260505005517 0 295 0.0 0.0 0.00 0.00 0.00 1010.8
20260505005015 0 267 0.0 0.0 0.00 0.00 0.00 1010.9
20260505004512 0 277 0.0 0.0 0.00 0.00 0.00 1010.7
20260505004008 0 238 0.0 0.9 0.00 0.00 0.00 1010.8
20260505003505 0 334 0.0 0.0 0.00 0.00 0.00 1010.8
20260505003002 0 190 0.0 0.9 0.00 0.00 0.00 1010.8
20260505002458 0 256 0.0 0.0 0.00 0.00 0.00 1010.7
20260505001956 0 286 0.0 0.0 0.00 0.00 0.00 1010.4
20260505001453 0 285 0.9 1.7 0.00 0.00 0.00 1010.5
20260505000950 0 310 0.0 0.0 0.00 0.00 0.00 1010.4
20260505000448 0 240 0.0 0.0 0.00 0.00 0.00 1010.6
20260504235945 0 157 1.7 1.7 0.00 0.00 0.00 1010.6
20260504235442 0 332 0.0 0.0 0.00 0.00 0.00 1010.7
20260504234939 0 282 0.0 0.0 0.00 0.00 0.00 1010.5
20260504234436 0 345 0.0 0.0 0.00 0.00 0.00 1010.6
20260504233932 0 301 0.0 0.0 0.00 0.00 0.00 1010.5
20260504233428 0 271 0.0 0.9 0.00 0.00 0.00 1010.5
20260504232925 0 274 0.0 0.0 0.00 0.00 0.00 1010.5
20260504232422 0 279 0.0 0.0 0.00 0.00 0.00 1010.4
20260504231919 0 288 0.0 0.9 0.00 0.00 0.00 1010.7
20260504231415 0 306 0.0 0.0 0.00 0.00 0.00 1010.8
20260504230912 0 290 0.0 0.9 0.00 0.00 0.00 1010.6
20260504230409 0 280 0.0 0.0 0.00 0.00 0.00 1010.4
20260504225908 0 163 0.0 0.0 0.00 0.00 0.00 1010.5
20260504225404 0 288 0.0 0.9 0.00 0.00 0.00 1010.3
20260504224902 0 354 0.9 0.9 0.00 0.00 0.00 1010.6
20260504224358 0 324 0.0 0.0 0.00 0.00 0.00 1010.6
20260504223855 0 318 0.0 0.0 0.00 0.00 0.00 1010.6
20260504223350 0 312 0.0 0.0 0.00 0.00 0.00 1010.7
20260504222847 0 338 0.0 0.0 0.00 0.00 0.00 1010.9
20260504222344 0 308 0.0 0.0 0.00 0.00 0.00 1010.7
20260504221843 0 296 0.0 0.0 0.00 0.00 0.00 1010.7
20260504221339 0 18 0.0 0.9 0.00 0.00 0.00 1010.5
20260504220836 0 78 0.0 0.0 0.00 0.00 0.00 1010.7
20260504220333 0 310 0.0 0.0 0.00 0.00 0.00 1010.7
20260504215830 0 298 0.0 0.0 0.00 0.00 0.00 1010.8
20260504215326 0 212 0.0 0.0 0.00 0.00 0.00 1010.6
20260504214822 0 315 1.7 1.7 0.00 0.00 0.00 1010.9
20260504214320 0 297 0.0 0.0 0.00 0.00 0.00 1010.7
20260504213816 0 324 0.0 0.9 0.00 0.00 0.00 1010.8
20260504213312 0 330 0.0 0.0 0.00 0.00 0.00 1010.9
20260504212810 0 334 0.0 0.9 0.00 0.00 0.00 1010.8
20260504212306 0 302 0.0 0.0 0.00 0.00 0.00 1010.6
20260504211803 0 230 0.0 0.9 0.00 0.00 0.00 1010.9
20260504211259 0 303 0.9 1.7 0.00 0.00 0.00 1010.9
20260504210757 0 246 0.0 0.9 0.00 0.00 0.00 1011.0
20260504210254 0 258 1.7 1.7 0.00 0.00 0.00 1010.7
20260504205751 0 144 1.7 1.7 0.00 0.00 0.00 1010.9
20260504205249 0 285 0.9 0.9 0.00 0.00 0.00 1011.1
20260504204747 0 278 2.6 4.3 0.00 0.00 0.00 1011.1
20260504204244 0 270 0.9 0.9 0.00 0.00 0.00 1011.1
20260504203744 0 297 0.9 1.7 0.00 0.00 0.00 1011.1
20260504203241 0 306 1.7 1.7 0.00 0.00 0.00 1011.4
20260504202740 0 293 0.0 0.9 0.00 0.00 0.00 1011.1
20260504202238 0 301 0.0 0.0 0.00 0.00 0.00 1011.2
20260504201735 0 190 0.9 0.9 0.00 0.00 0.00 1011.4
20260504201232 0 185 0.9 0.9 0.00 0.00 0.00 1011.4
20260504200730 0 253 0.0 0.0 0.00 0.00 0.00 1011.4
20260504200225 0 299 0.9 0.9 0.00 0.00 0.00 1011.4
20260504195722 0 317 2.6 2.6 0.00 0.00 0.00 1011.8
20260504195218 0 311 0.9 1.7 0.00 0.00 0.00 1011.7
20260504194715 0 297 0.9 0.9 0.00 0.00 0.00 1011.8
20260504194212 0 172 0.9 0.9 0.00 0.00 0.00 1011.7
20260504193708 0 297 1.7 1.7 0.00 0.00 0.00 1012.0
20260504193206 0 353 0.9 1.7 0.00 0.00 0.00 1011.7
20260504192704 0 270 0.9 1.7 0.00 0.00 0.00 1011.8
20260504192201 0 298 0.0 0.0 0.00 0.00 0.00 1012.0
20260504191700 0 188 0.0 0.0 0.00 0.00 0.00 1012.0
20260504191156 0 303 0.9 0.9 0.00 0.00 0.00 1012.4
20260504190651 0 333 1.7 2.6 0.00 0.00 0.00 1012.4
20260504190148 0 280 0.0 0.0 0.00 0.00 0.00 1012.3
20260504185645 0 303 0.9 0.9 0.00 0.00 0.00 1012.3
20260504185142 0 334 0.9 0.9 0.00 0.00 0.00 1012.4
20260504184638 0 296 0.9 0.9 0.00 0.00 0.00 1012.4
20260504184133 0 310 0.9 0.9 0.00 0.00 0.00 1012.8
20260504183630 0 317 0.0 0.9 0.00 0.00 0.00 1012.8
20260504183127 0 309 0.0 0.9 0.00 0.00 0.00 1013.0
20260504182625 0 282 0.0 0.9 0.00 0.00 0.00 1013.1
20260504182122 0 270 0.0 0.0 0.00 0.00 0.00 1013.2
20260504181620 0 321 0.0 0.9 0.00 0.00 0.00 1013.0